STARLINK-4612 (53750 NORAD) Tracking and Keplerian Element Data

This shows tracking and keplerian element data for the satellite.

Feedback or suggestion? Click here.




ElementValue
Catalog53750
NameSTARLINK-4612
Epoch Orbit1199
Epoch Day325.33334491
Epoch Year2022
RAAN270.927
Inclination53.217
Eccentricity0.0001627
Argument of Perigee51.4237
Mean Anonmoly287.4008
Mean Motion15.08829364
Decay Rate0.00022007
L11 53750U 22107BC 22325.33334491 .00022007 00000+0 13969-2 0 9996
L22 53750 53.2170 270.9270 0001627 51.4237 287.4008 15.08829364 11990



Live tracking and technical data element details for STARLINK-4612 (NORAD 53750). STARLINK-4612 can be tracked NOW for your location showing map with azimuth and elevation plus other details from your city location.







IsCatalogInMostPopularTable: catalog: 53750, numindb: -1

Insert: records affected: 1


GetName: 53750 STARLINK-4612

Hit Count: inserted at: Thu, 08 Dec 2022 10:31:21 GMT